| time (UTC) | temp F | wind direction | speed MPH | gust MPH | rain 1hr in | rain 24hr in | rain mn in | humidity % | barometer mb |
| 20260506043002 | 59 | 220 | 0.0 | 0.0 | 0.00 | 0.12 | 0.00 | 83 | 1006.7 |
| 20260506041610 | 59 | 220 | 0.0 | 0.0 | 0.00 | 0.12 | 0.00 | 83 | 1006.8 |
| 20260506040101 | 59 | 152 | 0.0 | 0.0 | 0.00 | 0.12 | 0.00 | 84 | 1006.8 |
| 20260506034602 | 59 | 153 | 0.0 | 0.0 | 0.00 | 0.12 | 0.12 | 84 | 1006.8 |
| 20260506033057 | 59 | 153 | 0.0 | 0.0 | 0.00 | 0.12 | 0.12 | 84 | 1006.8 |
| 20260506031600 | 59 | 157 | 0.0 | 0.0 | 0.00 | 0.12 | 0.12 | 84 | 1006.7 |
| 20260506030056 | 59 | 138 | 0.0 | 0.0 | 0.00 | 0.12 | 0.12 | 84 | 1006.6 |
| 20260506024603 | 59 | 144 | 0.0 | 0.0 | 0.00 | 0.12 | 0.12 | 84 | 1006.6 |
| 20260506023057 | 59 | 340 | 0.0 | 0.0 | 0.00 | 0.12 | 0.12 | 84 | 1006.7 |
| 20260506021554 | 59 | 344 | 0.0 | 0.0 | 0.00 | 0.12 | 0.12 | 84 | 1006.5 |
| 20260506020118 | 59 | 344 | 0.0 | 0.0 | 0.00 | 0.12 | 0.12 | 84 | 1006.5 |
| 20260506014554 | 59 | 338 | 0.0 | 0.0 | 0.00 | 0.12 | 0.12 | 86 | 1006.4 |
| 20260506013053 | 58 | 338 | 0.0 | 0.0 | 0.00 | 0.12 | 0.12 | 88 | 1006.3 |
| 20260506011552 | 58 | 338 | 0.0 | 0.0 | 0.00 | 0.12 | 0.12 | 89 | 1006.1 |
| 20260506010052 | 58 | 338 | 0.0 | 0.0 | 0.00 | 0.12 | 0.12 | 89 | 1006.1 |
| 20260506004552 | 58 | 338 | 0.0 | 0.0 | 0.00 | 0.12 | 0.12 | 90 | 1006.0 |
| 20260506003052 | 59 | 338 | 0.0 | 0.0 | 0.00 | 0.12 | 0.12 | 90 | 1005.7 |
| 20260506001602 | 59 | 338 | 0.0 | 0.0 | 0.00 | 0.12 | 0.12 | 88 | 1005.4 |
| 20260506000118 | 60 | 338 | 0.0 | 0.0 | 0.00 | 0.12 | 0.12 | 87 | 1005.7 |
| 20260505234551 | 60 | 338 | 0.0 | 0.0 | 0.00 | 0.12 | 0.12 | 85 | 1005.6 |
| 20260505233053 | 61 | 338 | 0.0 | 0.0 | 0.00 | 0.12 | 0.12 | 82 | 1005.5 |
| 20260505231555 | 60 | 297 | 0.0 | 0.0 | 0.00 | 0.12 | 0.12 | 85 | 1005.7 |
| 20260505230051 | 61 | 246 | 0.0 | 7.0 | 0.00 | 0.12 | 0.12 | 87 | 1005.7 |
| 20260505224550 | 61 | 241 | 0.0 | 0.0 | 0.03 | 0.12 | 0.12 | 88 | 1005.3 |
| 20260505223046 | 61 | 309 | 0.0 | 9.0 | 0.03 | 0.12 | 0.12 | 88 | 1004.5 |
| 20260505221556 | 61 | 360 | 2.0 | 11.0 | 0.03 | 0.12 | 0.12 | 88 | 1004.3 |
| 20260505214551 | 63 | 5 | 0.0 | 0.0 | 0.02 | 0.09 | 0.09 | 90 | 1004.2 |
| 20260505213044 | 63 | 5 | 0.0 | 0.0 | 0.09 | 0.09 | 0.09 | 90 | 1003.4 |
| 20260505211609 | 62 | 355 | 4.0 | 12.0 | 0.09 | 0.09 | 0.09 | 90 | 1003.6 |
| 20260505210044 | 61 | 51 | 5.0 | 9.0 | 0.09 | 0.09 | 0.09 | 85 | 1003.8 |
| 20260505204553 | 64 | 350 | 3.0 | 25.0 | 0.07 | 0.07 | 0.07 | 76 | 1003.8 |
| 20260505203037 | 75 | 259 | 8.0 | 31.0 | 0.00 | 0.00 | 0.00 | 41 | 1003.1 |
| 20260505201540 | 75 | 213 | 10.0 | 22.0 | 0.00 | 0.00 | 0.00 | 39 | 1002.0 |
| 20260505200037 | 75 | 272 | 10.0 | 20.0 | 0.00 | 0.00 | 0.00 | 38 | 1002.1 |
| 20260505194534 | 75 | 177 | 11.0 | 24.0 | 0.00 | 0.00 | 0.00 | 39 | 1002.3 |
| 20260505193035 | 76 | 204 | 12.0 | 29.0 | 0.00 | 0.00 | 0.00 | 40 | 1002.4 |
| 20260505191535 | 76 | 160 | 14.0 | 22.0 | 0.00 | 0.00 | 0.00 | 39 | 1002.4 |
| 20260505190030 | 76 | 177 | 5.0 | 24.0 | 0.00 | 0.00 | 0.00 | 43 | 1002.6 |
| 20260505184538 | 76 | 200 | 11.0 | 21.0 | 0.00 | 0.00 | 0.00 | 38 | 1002.8 |
| 20260505183028 | 77 | 210 | 11.0 | 25.0 | 0.00 | 0.00 | 0.00 | 38 | 1002.9 |
| 20260505181527 | 75 | 212 | 11.0 | 23.0 | 0.00 | 0.00 | 0.00 | 41 | 1003.4 |
| 20260505180024 | 76 | 217 | 12.0 | 24.0 | 0.00 | 0.00 | 0.00 | 41 | 1003.5 |
| 20260505174534 | 77 | 191 | 9.0 | 36.0 | 0.00 | 0.00 | 0.00 | 39 | 1003.7 |
| 20260505173021 | 76 | 202 | 13.0 | 29.0 | 0.00 | 0.00 | 0.00 | 39 | 1003.9 |
| 20260505171530 | 76 | 175 | 12.0 | 26.0 | 0.00 | 0.00 | 0.00 | 41 | 1004.2 |
| 20260505170020 | 75 | 202 | 19.0 | 33.0 | 0.00 | 0.00 | 0.00 | 40 | 1004.3 |
| 20260505164517 | 76 | 230 | 15.0 | 25.0 | 0.00 | 0.00 | 0.00 | 40 | 1004.3 |
| 20260505163015 | 75 | 195 | 8.0 | 26.0 | 0.00 | 0.00 | 0.00 | 43 | 1004.5 |
| 20260505161511 | 74 | 209 | 4.0 | 23.0 | 0.00 | 0.00 | 0.00 | 46 | 1004.6 |
| 20260505153002 | 70 | 209 | 5.0 | 16.0 | 0.00 | 0.00 | 0.00 | 52 | 1005.5 |
| 20260505151605 | 69 | 196 | 4.0 | 25.0 | 0.00 | 0.00 | 0.00 | 51 | 1005.4 |
| 20260505124534 | 61 | 200 | 1.0 | 4.0 | 0.00 | 0.00 | 0.00 | 70 | 1006.3 |
| 20260505123045 | 59 | 211 | 2.0 | 8.0 | 0.00 | 0.00 | 0.00 | 73 | 1006.2 |
| 20260505121527 | 58 | 182 | 4.0 | 8.0 | 0.00 | 0.00 | 0.00 | 74 | 1006.1 |
| 20260505120023 | 58 | 211 | 1.0 | 5.0 | 0.00 | 0.00 | 0.00 | 73 | 1006.2 |
| 20260505114522 | 58 | 190 | 0.0 | 6.0 | 0.00 | 0.00 | 0.00 | 69 | 1006.4 |
| 20260505113019 | 56 | 211 | 0.0 | 11.0 | 0.00 | 0.00 | 0.00 | 69 | 1006.6 |
| 20260505111515 | 53 | 113 | 0.0 | 0.0 | 0.00 | 0.00 | 0.00 | 72 | 1006.9 |
| 20260505101506 | 52 | 151 | 0.0 | 0.0 | 0.00 | 0.00 | 0.00 | 72 | 1006.1 |
| 20260505100003 | 52 | 151 | 0.0 | 0.0 | 0.00 | 0.00 | 0.00 | 70 | 1006.0 |
| 20260505094501 | 52 | 129 | 0.0 | 0.0 | 0.00 | 0.00 | 0.00 | 71 | 1006.1 |
| 20260505093101 | 51 | 107 | 0.0 | 3.0 | 0.00 | 0.00 | 0.00 | 72 | 1006.1 |
| 20260505093002 | 51 | 105 | 0.0 | 3.0 | 0.00 | 0.00 | 0.00 | 72 | 1006.1 |
| 20260505091600 | 51 | 92 | 0.0 | 0.0 | 0.00 | 0.00 | 0.00 | 72 | 1006.1 |
| 20260505090100 | 51 | 92 | 0.0 | 0.0 | 0.00 | 0.00 | 0.00 | 71 | 1006.2 |
| 20260505084604 | 52 | 92 | 0.0 | 0.0 | 0.00 | 0.00 | 0.00 | 70 | 1006.3 |
| 20260505083109 | 52 | 92 | 0.0 | 0.0 | 0.00 | 0.00 | 0.00 | 69 | 1006.3 |
| 20260505081556 | 52 | 92 | 0.0 | 0.0 | 0.00 | 0.00 | 0.00 | 69 | 1006.4 |
| 20260505080103 | 51 | 92 | 0.0 | 0.0 | 0.00 | 0.00 | 0.00 | 70 | 1006.3 |
| 20260505074553 | 52 | 132 | 0.0 | 0.0 | 0.00 | 0.00 | 0.00 | 70 | 1006.4 |
| 20260505073058 | 52 | 132 | 0.0 | 0.0 | 0.00 | 0.00 | 0.00 | 68 | 1006.3 |
| 20260505071550 | 53 | 132 | 0.0 | 0.0 | 0.00 | 0.00 | 0.00 | 68 | 1006.4 |
| 20260505070050 | 53 | 132 | 0.0 | 0.0 | 0.00 | 0.00 | 0.00 | 67 | 1006.6 |
| 20260505064615 | 53 | 132 | 0.0 | 0.0 | 0.00 | 0.00 | 0.00 | 66 | 1006.7 |
| 20260505063045 | 53 | 132 | 1.0 | 3.0 | 0.00 | 0.00 | 0.00 | 66 | 1006.6 |
| 20260505061544 | 53 | 122 | 1.0 | 8.0 | 0.00 | 0.00 | 0.00 | 66 | 1006.7 |
| 20260505060044 | 53 | 79 | 0.0 | 0.0 | 0.00 | 0.00 | 0.00 | 67 | 1006.7 |
| 20260505054548 | 53 | 153 | 0.0 | 0.0 | 0.00 | 0.00 | 0.00 | 67 | 1006.8 |
| 20260505053041 | 53 | 153 | 0.0 | 3.0 | 0.00 | 0.00 | 0.00 | 65 | 1006.9 |
| 20260505051539 | 54 | 132 | 0.0 | 4.0 | 0.00 | 0.00 | 0.00 | 63 | 1007.0 |